Tracking 35275 objects as of 9-Sep-2026
HD Live streaming from Space Station
objects crossing your sky now

STARLINK-34145

Track STARLINK-34145 now!
10-day predictions
STARLINK-34145 is classified as:


NORAD ID: 64110
Int'l Code: 2025-110Q
Launch date: May 23, 2025
Source: United States (US)
Launch site: AIR FORCE WESTERN TEST RANGE (AFWTR)
Your satellite tracking list
Your tracking list is empty




NASA's NSSDC Master Catalog

Two Line Element Set (TLE):
1 64110U 25110Q   26251.41434803  .00021067  00000-0  63250-3 0  9999
2 64110  53.1587 254.1143 0000718  48.5331 311.5733 15.34419703 73913
Source of the keplerian elements: AFSPC